| time (UTC) | temp F | wind direction | speed knots | gust knots | rain 1hr in | rain 24hr in | rain mn in | humidity % | barometer mb |
| 20260504081524 | 46 | 319 | 0.0 | 1.7 | 0.00 | 0.00 | 0.00 | 55 | 1014.2 |
| 20260504044521 | 51 | 231 | 1.7 | 6.1 | 0.00 | 0.00 | 0.00 | 45 | 1014.2 |
| 20260504043008 | 52 | 226 | 0.9 | 5.2 | 0.00 | 0.00 | 0.00 | 43 | 1014.2 |
| 20260504041513 | 51 | 207 | 1.7 | 5.2 | 0.00 | 0.00 | 0.00 | 46 | 1014.2 |
| 20260504040017 | 51 | 243 | 1.7 | 6.1 | 0.00 | 0.00 | 0.00 | 44 | 1014.0 |
| 20260504034522 | 51 | 219 | 1.7 | 4.3 | 0.00 | 0.00 | 0.00 | 45 | 1013.8 |
| 20260504033027 | 51 | 226 | 1.7 | 4.3 | 0.00 | 0.00 | 0.00 | 45 | 1013.7 |
| 20260504031511 | 52 | 210 | 1.7 | 6.1 | 0.00 | 0.00 | 0.00 | 44 | 1013.6 |
| 20260504030013 | 52 | 233 | 2.6 | 4.3 | 0.00 | 0.00 | 0.00 | 44 | 1013.4 |
| 20260504024520 | 51 | 211 | 1.7 | 2.6 | 0.00 | 0.00 | 0.00 | 45 | 1013.5 |
| 20260504023025 | 53 | 201 | 1.7 | 4.3 | 0.00 | 0.00 | 0.00 | 42 | 1013.6 |
| 20260504021506 | 51 | 229 | 1.7 | 3.5 | 0.00 | 0.00 | 0.00 | 44 | 1013.7 |
| 20260504020016 | 52 | 210 | 1.7 | 4.3 | 0.00 | 0.00 | 0.00 | 44 | 1013.7 |
| 20260504014524 | 52 | 209 | 0.9 | 2.6 | 0.00 | 0.00 | 0.00 | 44 | 1013.6 |
| 20260504013023 | 51 | 211 | 0.9 | 2.6 | 0.00 | 0.00 | 0.00 | 43 | 1013.6 |
| 20260504011524 | 52 | 225 | 0.9 | 2.6 | 0.00 | 0.00 | 0.00 | 45 | 1013.4 |
| 20260504010009 | 53 | 219 | 0.9 | 2.6 | 0.00 | 0.00 | 0.00 | 45 | 1013.5 |
| 20260504004519 | 53 | 216 | 0.9 | 1.7 | 0.00 | 0.00 | 0.00 | 41 | 1013.4 |
| 20260504003018 | 54 | 214 | 0.9 | 3.5 | 0.00 | 0.00 | 0.00 | 40 | 1013.3 |
| 20260504001525 | 54 | 240 | 0.9 | 1.7 | 0.00 | 0.00 | 0.00 | 41 | 1013.1 |
| 20260504000025 | 55 | 271 | 0.9 | 5.2 | 0.00 | 0.00 | 0.00 | 39 | 1013.0 |
| 20260503234512 | 56 | 297 | 1.7 | 4.3 | 0.00 | 0.00 | 0.00 | 40 | 1012.8 |
| 20260503233026 | 57 | 280 | 2.6 | 6.1 | 0.00 | 0.00 | 0.00 | 40 | 1012.7 |
| 20260503231522 | 58 | 286 | 2.6 | 10.4 | 0.00 | 0.00 | 0.00 | 37 | 1012.7 |
| 20260503230028 | 58 | 282 | 4.3 | 11.3 | 0.00 | 0.00 | 0.00 | 35 | 1012.5 |
| 20260503224530 | 58 | 300 | 2.6 | 10.4 | 0.00 | 0.00 | 0.00 | 37 | 1012.6 |
| 20260503223013 | 59 | 269 | 5.2 | 12.2 | 0.00 | 0.00 | 0.00 | 36 | 1012.5 |
| 20260503221526 | 59 | 303 | 6.1 | 13.0 | 0.00 | 0.00 | 0.00 | 34 | 1012.5 |
| 20260503220024 | 59 | 313 | 5.2 | 11.3 | 0.00 | 0.00 | 0.00 | 35 | 1012.7 |
| 20260503214526 | 59 | 294 | 5.2 | 8.7 | 0.00 | 0.00 | 0.00 | 33 | 1012.5 |
| 20260503213013 | 60 | 301 | 4.3 | 7.8 | 0.00 | 0.00 | 0.00 | 35 | 1012.4 |
| 20260503211519 | 59 | 277 | 3.5 | 12.2 | 0.00 | 0.00 | 0.00 | 39 | 1012.4 |
| 20260503210025 | 59 | 359 | 2.6 | 10.4 | 0.00 | 0.00 | 0.00 | 42 | 1012.3 |
| 20260503204526 | 59 | 324 | 5.2 | 13.9 | 0.00 | 0.00 | 0.00 | 38 | 1012.3 |
| 20260503203028 | 59 | 298 | 6.1 | 11.3 | 0.00 | 0.00 | 0.00 | 35 | 1012.4 |
| 20260503201516 | 58 | 321 | 1.7 | 10.4 | 0.00 | 0.00 | 0.00 | 37 | 1012.4 |
| 20260503200022 | 57 | 279 | 3.5 | 7.8 | 0.00 | 0.00 | 0.00 | 38 | 1012.6 |
| 20260503194526 | 58 | 359 | 2.6 | 9.6 | 0.00 | 0.00 | 0.00 | 39 | 1012.7 |
| 20260503193027 | 57 | 329 | 2.6 | 8.7 | 0.00 | 0.00 | 0.00 | 35 | 1012.9 |
| 20260503191530 | 58 | 340 | 4.3 | 12.2 | 0.00 | 0.00 | 0.00 | 38 | 1013.1 |
| 20260503190020 | 57 | 323 | 3.5 | 7.8 | 0.00 | 0.00 | 0.00 | 41 | 1013.3 |
| 20260503184524 | 57 | 274 | 6.1 | 13.9 | 0.00 | 0.00 | 0.00 | 34 | 1013.4 |
| 20260503183025 | 56 | 307 | 4.3 | 9.6 | 0.00 | 0.00 | 0.00 | 38 | 1013.8 |
| 20260503181511 | 55 | 319 | 4.3 | 9.6 | 0.00 | 0.00 | 0.00 | 37 | 1013.8 |
| 20260503180017 | 54 | 318 | 6.1 | 10.4 | 0.00 | 0.00 | 0.00 | 37 | 1014.0 |
| 20260503174522 | 54 | 309 | 5.2 | 11.3 | 0.00 | 0.00 | 0.00 | 37 | 1014.0 |
| 20260503173005 | 55 | 316 | 3.5 | 11.3 | 0.00 | 0.00 | 0.00 | 43 | 1014.2 |
| 20260503171510 | 54 | 307 | 5.2 | 13.0 | 0.00 | 0.00 | 0.00 | 40 | 1014.2 |